QPF
0.02 0.02 0.01 0.02 0.01 0.01 0.01 0.01 0.02 0.02 0.02 0.02 0.01 0.01 0.01 0.01 0.00 0.01 0.02 0.02 0.02 0.02 0.02 0.02 0.03 0.03 0.02 0.02 0.03 0.02 0.01 0.01 0.01 0.01 0.01 0.01 0.01 0.01 0.01 0.01 0.01 0.01 0.01
0.03 0.03 0.03 0.02 0.02 0.03 0.02 0.01 0.01 0.01 0.02 0.02 0.01 0.01 0.01 0.01 0.00 0.00 0.01 0.02 0.03 0.03 0.03 0.04 0.03 0.03 0.03 0.02 0.02 0.02 0.02 0.01 0.01 0.01 0.01 0.01 0.01 0.01 0.01 0.01 0.01 0.01 0.01
0.03 0.03 0.03 0.03 0.02 0.03 0.03 0.01 0.02 0.02 0.02 0.02 0.02 0.01 0.01 0.01 0.01 0.00 0.01 0.01 0.01 0.03 0.03 0.04 0.05 0.04 0.03 0.03 0.03 0.03 0.02 0.02 0.01 0.01 0.01 0.01 0.01 0.01 0.01 0.01 0.01 0.01 0.01
0.03 0.03 0.04 0.04 0.03 0.03 0.02 0.02 0.03 0.05 0.04 0.04 0.03 0.02 0.01 0.00 0.00 0.01 0.01 0.01 0.00 0.00 0.02 0.03 0.04 0.05 0.05 0.06 0.05 0.05 0.03 0.02 0.02 0.01 0.01 0.01 0.01 0.01 0.01 0.01 0.01 0.01 0.01
0.04 0.03 0.03 0.03 0.03 0.02 0.03 0.02 0.02 0.03 0.03 0.04 0.04 0.04 0.02 0.01 0.01 0.01 0.01 0.01 0.00 0.00 0.01 0.02 0.04 0.05 0.05 0.07 0.09 0.08 0.07 0.05 0.03 0.02 0.02 0.01 0.01 0.01 0.01 0.01 0.01 0.01 0.01
0.03 0.03 0.04 0.02 0.02 0.02 0.02 0.02 0.02 0.02 0.02 0.01 0.02 0.02 0.02 0.02 0.02 0.02 0.01 0.01 0.01 0.01 0.02 0.02 0.02 0.03 0.05 0.07 0.08 0.07 0.07 0.05 0.04 0.03 0.03 0.03 0.03 0.02 0.01 0.01 0.02 0.02 0.01
0.06 0.05 0.05 0.02 0.01 0.01 0.01 0.02 0.04 0.04 0.03 0.02 0.02 0.02 0.02 0.03 0.03 0.02 0.02 0.03 0.02 0.02 0.01 0.03 0.04 0.03 0.03 0.04 0.06 0.08 0.08 0.09 0.07 0.04 0.04 0.04 0.04 0.03 0.02 0.03 0.02 0.02 0.02
0.09 0.08 0.05 0.04 0.03 0.02 0.02 0.03 0.05 0.04 0.04 0.03 0.04 0.04 0.03 0.02 0.02 0.02 0.03 0.03 0.03 0.03 0.04 0.04 0.03 0.03 0.03 0.04 0.04 0.06 0.10 0.10 0.10 0.10 0.08 0.06 0.05 0.04 0.04 0.03 0.03 0.03 0.03
0.10 0.08 0.08 0.06 0.05 0.04 0.03 0.03 0.05 0.04 0.04 0.03 0.03 0.03 0.02 0.01 0.01 0.02 0.02 0.03 0.04 0.05 0.06 0.06 0.05 0.06 0.07 0.07 0.05 0.05 0.06 0.07 0.09 0.12 0.10 0.08 0.05 0.04 0.04 0.05 0.04 0.04 0.04
0.14 0.11 0.09 0.07 0.06 0.04 0.03 0.03 0.03 0.03 0.03 0.02 0.02 0.02 0.02 0.01 0.01 0.01 0.01 0.01 0.02 0.02 0.03 0.05 0.06 0.07 0.08 0.07 0.07 0.06 0.04 0.04 0.07 0.09 0.10 0.11 0.09 0.07 0.06 0.06 0.07 0.06 0.06
0.12 0.09 0.08 0.06 0.06 0.04 0.04 0.04 0.04 0.03 0.02 0.02 0.02 0.02 0.01 0.01 0.01 0.01 0.01 0.01 0.01 0.01 0.02 0.04 0.04 0.05 0.05 0.05 0.05 0.07 0.07 0.05 0.04 0.06 0.08 0.10 0.11 0.11 0.10 0.10 0.10 0.10 0.11
0.06 0.06 0.06 0.05 0.06 0.06 0.05 0.05 0.04 0.03 0.03 0.02 0.03 0.03 0.02 0.02 0.02 0.02 0.01 0.01 0.01 0.02 0.03 0.05 0.05 0.04 0.04 0.05 0.06 0.07 0.07 0.08 0.08 0.08 0.07 0.07 0.08 0.11 0.12 0.12 0.14 0.15 0.15
0.03 0.03 0.03 0.03 0.05 0.05 0.06 0.06 0.05 0.05 0.05 0.04 0.04 0.04 0.05 0.04 0.05 0.05 0.04 0.03 0.03 0.03 0.04 0.04 0.05 0.05 0.04 0.05 0.06 0.06 0.06 0.07 0.08 0.09 0.09 0.10 0.09 0.08 0.08 0.10 0.13 0.13 0.13
0.03 0.03 0.04 0.03 0.05 0.05 0.04 0.05 0.07 0.06 0.07 0.07 0.06 0.06 0.05 0.05 0.06 0.05 0.05 0.05 0.04 0.03 0.04 0.04 0.04 0.04 0.05 0.07 0.08 0.08 0.06 0.07 0.07 0.07 0.08 0.09 0.08 0.08 0.07 0.08 0.10 0.10 0.10
0.03 0.04 0.04 0.05 0.05 0.04 0.03 0.05 0.08 0.08 0.09 0.08 0.06 0.04 0.04 0.04 0.05 0.07 0.07 0.07 0.05 0.04 0.03 0.04 0.05 0.05 0.06 0.06 0.08 0.06 0.06 0.07 0.07 0.07 0.08 0.08 0.08 0.09 0.09 0.10 0.10 0.10 0.10
0.04 0.04 0.04 0.05 0.06 0.05 0.05 0.07 0.07 0.08 0.08 0.06 0.04 0.03 0.04 0.04 0.04 0.05 0.06 0.07 0.07 0.07 0.06 0.06 0.07 0.07 0.07 0.06 0.06 0.05 0.05 0.07 0.07 0.07 0.08 0.09 0.09 0.08 0.09 0.10 0.09 0.09 0.09
0.03 0.04 0.05 0.05 0.05 0.07 0.07 0.06 0.05 0.05 0.05 0.04 0.03 0.03 0.05 0.06 0.05 0.06 0.06 0.06 0.06 0.08 0.09 0.08 0.07 0.06 0.06 0.05 0.06 0.06 0.07 0.07 0.06 0.07 0.06 0.05 0.05 0.06 0.08 0.09 0.09 0.08 0.09
0.03 0.03 0.04 0.05 0.03 0.05 0.06 0.05 0.05 0.05 0.03 0.03 0.03 0.03 0.04 0.04 0.04 0.04 0.05 0.05 0.05 0.05 0.06 0.05 0.05 0.06 0.06 0.06 0.06 0.07 0.07 0.06 0.05 0.06 0.05 0.05 0.06 0.07 0.08 0.09 0.10 0.10 0.10
0.05 0.05 0.05 0.05 0.04 0.05 0.05 0.04 0.04 0.05 0.04 0.03 0.03 0.03 0.03 0.04 0.03 0.03 0.03 0.03 0.04 0.05 0.05 0.04 0.04 0.06 0.07 0.07 0.06 0.06 0.06 0.05 0.04 0.04 0.05 0.06 0.06 0.07 0.07 0.07 0.08 0.09 0.09
0.06 0.06 0.06 0.06 0.07 0.08 0.07 0.05 0.04 0.04 0.03 0.03 0.03 0.03 0.03 0.03 0.03 0.03 0.03 0.03 0.05 0.06 0.06 0.06 0.06 0.07 0.08 0.08 0.07 0.06 0.06 0.05 0.04 0.04 0.05 0.05 0.06 0.06 0.06 0.07 0.08 0.08 0.08
0.06 0.07 0.07 0.07 0.07 0.08 0.07 0.05 0.04 0.03 0.03 0.03 0.04 0.04 0.04 0.04 0.04 0.03 0.03 0.03 0.04 0.03 0.03 0.03 0.04 0.04 0.04 0.04 0.04 0.04 0.04 0.04 0.04 0.04 0.04 0.04 0.05 0.05 0.06 0.08 0.08 0.07 0.07
0.10 0.07 0.08 0.10 0.09 0.08 0.07 0.05 0.04 0.04 0.03 0.03 0.03 0.03 0.03 0.03 0.03 0.02 0.01 0.02 0.02 0.03 0.02 0.02 0.03 0.03 0.03 0.02 0.02 0.03 0.03 0.03 0.04 0.03 0.03 0.03 0.03 0.03 0.04 0.06 0.09 0.11 0.11
0.11 0.11 0.08 0.08 0.10 0.10 0.08 0.06 0.05 0.04 0.03 0.03 0.03 0.03 0.02 0.01 0.01 0.01 0.01 0.01 0.02 0.02 0.02 0.02 0.02 0.02 0.02 0.02 0.02 0.02 0.02 0.03 0.03 0.03 0.03 0.03 0.03 0.03 0.04 0.06 0.08 0.11 0.14
0.03 0.04 0.04 0.03 0.04 0.06 0.07 0.06 0.06 0.05 0.04 0.04 0.03 0.02 0.02 0.01 0.01 0.01 0.02 0.02 0.02 0.03 0.02 0.02 0.01 0.01 0.01 0.02 0.02 0.02 0.03 0.03 0.03 0.03 0.03 0.03 0.03 0.03 0.04 0.05 0.08 0.10 0.12
0.02 0.01 0.01 0.02 0.02 0.02 0.04 0.05 0.05 0.04 0.04 0.04 0.03 0.02 0.02 0.02 0.03 0.03 0.03 0.02 0.02 0.01 0.02 0.02 0.02 0.02 0.03 0.03 0.03 0.03 0.03 0.03 0.03 0.02 0.02 0.02 0.02 0.03 0.03 0.04 0.06 0.07 0.07
0.01 0.01 0.01 0.02 0.02 0.02 0.03 0.03 0.05 0.04 0.04 0.05 0.04 0.03 0.03 0.03 0.04 0.04 0.04 0.03 0.03 0.02 0.03 0.03 0.03 0.02 0.02 0.02 0.03 0.03 0.03 0.04 0.04 0.03 0.03 0.02 0.02 0.03 0.04 0.04 0.04 0.04 0.04
MSLP
1018.72 1018.88 1018.96 1018.99 1018.99 1018.98 1019.00 1019.06 1019.16 1019.28 1019.42 1019.56 1019.68 1019.80 1019.90 1020.02 1020.16 1020.34 1020.54 1020.76 1020.97 1021.15 1021.28 1021.37 1021.40 1021.41 1021.40 1021.42 1021.48 1021.60 1021.77 1021.98 1022.21 1022.45 1022.68 1022.87 1023.04 1023.17 1023.28 1023.37 1023.45 1023.52 1023.59
1018.97 1019.14 1019.24 1019.28 1019.28 1019.27 1019.27 1019.31 1019.38 1019.48 1019.61 1019.74 1019.85 1019.96 1020.06 1020.16 1020.27 1020.40 1020.57 1020.75 1020.93 1021.10 1021.23 1021.33 1021.40 1021.42 1021.44 1021.47 1021.52 1021.61 1021.74 1021.91 1022.11 1022.33 1022.54 1022.73 1022.91 1023.05 1023.18 1023.28 1023.36 1023.43 1023.50
1019.13 1019.32 1019.45 1019.51 1019.53 1019.54 1019.55 1019.58 1019.66 1019.76 1019.88 1020.00 1020.12 1020.21 1020.29 1020.35 1020.41 1020.49 1020.58 1020.70 1020.83 1020.96 1021.09 1021.20 1021.29 1021.35 1021.40 1021.45 1021.50 1021.57 1021.67 1021.80 1021.96 1022.13 1022.31 1022.49 1022.66 1022.81 1022.95 1023.07 1023.17 1023.25 1023.32
1019.19 1019.40 1019.55 1019.65 1019.71 1019.76 1019.80 1019.86 1019.95 1020.07 1020.19 1020.32 1020.43 1020.51 1020.56 1020.58 1020.57 1020.57 1020.58 1020.61 1020.66 1020.74 1020.84 1020.95 1021.06 1021.15 1021.24 1021.31 1021.37 1021.44 1021.51 1021.60 1021.71 1021.83 1021.97 1022.13 1022.29 1022.45 1022.60 1022.74 1022.87 1022.97 1023.06
1019.16 1019.36 1019.54 1019.69 1019.80 1019.90 1019.99 1020.10 1020.22 1020.35 1020.49 1020.63 1020.73 1020.80 1020.82 1020.79 1020.72 1020.64 1020.55 1020.48 1020.45 1020.46 1020.51 1020.60 1020.71 1020.82 1020.93 1021.03 1021.11 1021.17 1021.22 1021.28 1021.34 1021.43 1021.54 1021.67 1021.82 1021.99 1022.15 1022.32 1022.47 1022.61 1022.73
1019.04 1019.24 1019.43 1019.62 1019.79 1019.95 1020.09 1020.24 1020.40 1020.55 1020.71 1020.85 1020.96 1021.02 1021.02 1020.96 1020.83 1020.67 1020.50 1020.34 1020.21 1020.14 1020.13 1020.17 1020.26 1020.37 1020.49 1020.60 1020.69 1020.75 1020.80 1020.83 1020.87 1020.92 1021.01 1021.13 1021.28 1021.45 1021.64 1021.83 1022.01 1022.18 1022.33
1018.86 1019.04 1019.25 1019.47 1019.69 1019.89 1020.09 1020.27 1020.45 1020.63 1020.79 1020.94 1021.05 1021.11 1021.11 1021.03 1020.88 1020.68 1020.44 1020.20 1019.99 1019.83 1019.74 1019.72 1019.76 1019.85 1019.95 1020.05 1020.14 1020.20 1020.24 1020.27 1020.29 1020.34 1020.42 1020.53 1020.69 1020.88 1021.08 1021.30 1021.50 1021.69 1021.86
1018.68 1018.83 1019.03 1019.27 1019.51 1019.75 1019.97 1020.17 1020.36 1020.54 1020.70 1020.85 1020.97 1021.05 1021.06 1020.99 1020.85 1020.63 1020.37 1020.08 1019.80 1019.57 1019.39 1019.29 1019.26 1019.29 1019.35 1019.43 1019.50 1019.55 1019.59 1019.61 1019.64 1019.69 1019.78 1019.91 1020.07 1020.28 1020.50 1020.73 1020.95 1021.15 1021.33
1018.50 1018.62 1018.81 1019.04 1019.29 1019.54 1019.76 1019.96 1020.13 1020.29 1020.44 1020.58 1020.71 1020.80 1020.85 1020.83 1020.72 1020.53 1020.27 1019.97 1019.65 1019.35 1019.10 1018.91 1018.79 1018.74 1018.74 1018.77 1018.80 1018.84 1018.87 1018.90 1018.94 1019.01 1019.11 1019.25 1019.43 1019.64 1019.87 1020.11 1020.33 1020.53 1020.71
1018.35 1018.42 1018.59 1018.82 1019.06 1019.29 1019.49 1019.66 1019.79 1019.91 1020.02 1020.14 1020.27 1020.39 1020.48 1020.51 1020.47 1020.34 1020.12 1019.83 1019.50 1019.16 1018.84 1018.57 1018.36 1018.22 1018.14 1018.10 1018.10 1018.11 1018.13 1018.16 1018.22 1018.30 1018.41 1018.56 1018.75 1018.97 1019.20 1019.42 1019.64 1019.83 1020.00
1018.20 1018.25 1018.39 1018.60 1018.82 1019.02 1019.18 1019.29 1019.37 1019.42 1019.49 1019.58 1019.69 1019.83 1019.97 1020.07 1020.10 1020.04 1019.88 1019.63 1019.31 1018.94 1018.58 1018.24 1017.95 1017.73 1017.57 1017.46 1017.41 1017.39 1017.40 1017.43 1017.49 1017.58 1017.70 1017.85 1018.04 1018.24 1018.46 1018.67 1018.87 1019.05 1019.21
1018.04 1018.07 1018.20 1018.39 1018.58 1018.74 1018.85 1018.90 1018.90 1018.89 1018.89 1018.93 1019.03 1019.17 1019.33 1019.49 1019.59 1019.60 1019.51 1019.30 1019.01 1018.64 1018.25 1017.87 1017.52 1017.23 1017.01 1016.86 1016.76 1016.72 1016.71 1016.74 1016.80 1016.88 1017.00 1017.14 1017.30 1017.48 1017.67 1017.86 1018.04 1018.20 1018.37
1017.86 1017.89 1018.02 1018.18 1018.34 1018.46 1018.52 1018.50 1018.43 1018.34 1018.27 1018.26 1018.32 1018.45 1018.63 1018.81 1018.96 1019.02 1018.99 1018.83 1018.56 1018.22 1017.82 1017.42 1017.04 1016.72 1016.47 1016.29 1016.18 1016.12 1016.11 1016.13 1016.18 1016.26 1016.35 1016.47 1016.60 1016.74 1016.90 1017.05 1017.22 1017.38 1017.55
1017.67 1017.72 1017.84 1017.99 1018.13 1018.21 1018.22 1018.14 1018.00 1017.84 1017.71 1017.64 1017.65 1017.74 1017.90 1018.09 1018.25 1018.34 1018.34 1018.21 1017.98 1017.65 1017.27 1016.88 1016.51 1016.19 1015.95 1015.78 1015.68 1015.64 1015.63 1015.66 1015.71 1015.77 1015.84 1015.92 1016.01 1016.11 1016.23 1016.37 1016.52 1016.69 1016.88
1017.51 1017.58 1017.71 1017.85 1017.97 1018.02 1017.98 1017.85 1017.66 1017.44 1017.25 1017.12 1017.07 1017.12 1017.24 1017.39 1017.54 1017.62 1017.62 1017.51 1017.29 1016.99 1016.64 1016.28 1015.94 1015.67 1015.47 1015.35 1015.30 1015.29 1015.33 1015.38 1015.43 1015.49 1015.54 1015.59 1015.64 1015.71 1015.80 1015.91 1016.06 1016.25 1016.47
1017.43 1017.52 1017.66 1017.80 1017.90 1017.92 1017.85 1017.68 1017.45 1017.19 1016.94 1016.76 1016.66 1016.65 1016.72 1016.82 1016.91 1016.96 1016.93 1016.80 1016.59 1016.30 1015.99 1015.67 1015.40 1015.20 1015.08 1015.03 1015.05 1015.12 1015.22 1015.31 1015.40 1015.47 1015.52 1015.55 1015.59 1015.63 1015.70 1015.81 1015.96 1016.17 1016.43
1017.49 1017.61 1017.75 1017.88 1017.96 1017.95 1017.85 1017.66 1017.40 1017.11 1016.84 1016.62 1016.47 1016.41 1016.41 1016.45 1016.48 1016.46 1016.38 1016.22 1015.99 1015.71 1015.42 1015.16 1014.95 1014.83 1014.80 1014.86 1014.98 1015.14 1015.32 1015.49 1015.63 1015.74 1015.81 1015.87 1015.91 1015.96 1016.03 1016.14 1016.30 1016.53 1016.82
1017.73 1017.86 1018.00 1018.12 1018.17 1018.14 1018.01 1017.80 1017.53 1017.22 1016.93 1016.69 1016.52 1016.41 1016.36 1016.32 1016.28 1016.20 1016.06 1015.85 1015.59 1015.30 1015.03 1014.80 1014.66 1014.62 1014.68 1014.83 1015.06 1015.33 1015.60 1015.86 1016.09 1016.27 1016.40 1016.50 1016.58 1016.66 1016.76 1016.89 1017.07 1017.31 1017.62
1018.11 1018.27 1018.41 1018.50 1018.53 1018.47 1018.32 1018.09 1017.80 1017.49 1017.21 1016.96 1016.77 1016.64 1016.55 1016.47 1016.37 1016.22 1016.01 1015.75 1015.45 1015.15 1014.88 1014.67 1014.57 1014.59 1014.72 1014.96 1015.28 1015.64 1016.02 1016.38 1016.70 1016.98 1017.20 1017.38 1017.53 1017.67 1017.81 1017.98 1018.18 1018.43 1018.73
1018.60 1018.78 1018.92 1018.99 1018.99 1018.90 1018.72 1018.47 1018.18 1017.88 1017.60 1017.37 1017.19 1017.05 1016.95 1016.83 1016.69 1016.50 1016.25 1015.94 1015.60 1015.27 1014.99 1014.79 1014.70 1014.74 1014.92 1015.21 1015.59 1016.03 1016.49 1016.95 1017.38 1017.76 1018.09 1018.37 1018.61 1018.83 1019.04 1019.26 1019.48 1019.74 1020.02
1019.09 1019.30 1019.45 1019.52 1019.49 1019.37 1019.17 1018.91 1018.61 1018.32 1018.06 1017.85 1017.69 1017.57 1017.47 1017.36 1017.21 1016.99 1016.71 1016.38 1016.01 1015.66 1015.35 1015.13 1015.03 1015.07 1015.25 1015.56 1015.97 1016.45 1016.97 1017.50 1018.01 1018.49 1018.93 1019.32 1019.68 1019.99 1020.28 1020.55 1020.80 1021.06 1021.32
1019.48 1019.74 1019.92 1019.99 1019.96 1019.82 1019.61 1019.33 1019.04 1018.76 1018.52 1018.34 1018.21 1018.12 1018.05 1017.96 1017.82 1017.61 1017.33 1016.99 1016.61 1016.24 1015.91 1015.67 1015.54 1015.55 1015.70 1015.98 1016.38 1016.86 1017.40 1017.96 1018.54 1019.10 1019.63 1020.13 1020.58 1020.99 1021.36 1021.68 1021.97 1022.22 1022.45
1019.69 1020.03 1020.25 1020.35 1020.33 1020.20 1019.98 1019.71 1019.42 1019.15 1018.94 1018.79 1018.69 1018.65 1018.61 1018.55 1018.45 1018.27 1018.02 1017.69 1017.33 1016.96 1016.62 1016.35 1016.19 1016.15 1016.25 1016.47 1016.82 1017.26 1017.77 1018.34 1018.93 1019.53 1020.12 1020.70 1021.23 1021.72 1022.16 1022.54 1022.85 1023.10 1023.31
1019.68 1020.11 1020.40 1020.56 1020.58 1020.48 1020.28 1020.02 1019.74 1019.50 1019.30 1019.18 1019.12 1019.11 1019.11 1019.10 1019.04 1018.91 1018.70 1018.42 1018.09 1017.74 1017.41 1017.13 1016.94 1016.85 1016.89 1017.04 1017.31 1017.68 1018.13 1018.65 1019.21 1019.81 1020.42 1021.03 1021.61 1022.15 1022.63 1023.04 1023.38 1023.64 1023.82
1019.46 1019.99 1020.38 1020.62 1020.71 1020.66 1020.50 1020.27 1020.03 1019.80 1019.63 1019.53 1019.50 1019.51 1019.55 1019.58 1019.56 1019.48 1019.33 1019.11 1018.83 1018.53 1018.23 1017.96 1017.76 1017.64 1017.62 1017.71 1017.89 1018.16 1018.52 1018.96 1019.46 1020.00 1020.58 1021.17 1021.75 1022.30 1022.80 1023.23 1023.57 1023.83 1024.01
1019.09 1019.73 1020.23 1020.56 1020.74 1020.76 1020.67 1020.49 1020.29 1020.10 1019.95 1019.87 1019.85 1019.88 1019.94 1019.99 1020.02 1019.99 1019.89 1019.74 1019.53 1019.29 1019.04 1018.81 1018.62 1018.50 1018.44 1018.47 1018.57 1018.75 1019.01 1019.34 1019.74 1020.20 1020.70 1021.23 1021.76 1022.28 1022.76 1023.18 1023.51 1023.77 1023.94
Thickness
5738 5738 5737 5737 5737 5737 5736 5735 5735 5734 5733 5732 5731 5731 5730 5729 5728 5727 5726 5725 5725 5724 5723 5722 5721 5720 5718 5717 5715 5714 5713 5711 5710 5709 5708 5706 5705 5704 5703 5702 5701 5699 5698
5737 5737 5737 5737 5737 5736 5736 5735 5735 5734 5733 5732 5731 5731 5730 5729 5728 5727 5726 5726 5725 5724 5723 5722 5721 5720 5718 5717 5715 5714 5712 5711 5710 5708 5707 5706 5704 5703 5702 5701 5700 5698 5697
5737 5737 5737 5737 5737 5737 5736 5735 5734 5733 5732 5732 5731 5731 5730 5729 5728 5727 5726 5725 5725 5724 5723 5722 5721 5720 5719 5717 5716 5714 5713 5711 5709 5708 5707 5705 5704 5703 5702 5700 5699 5697 5696
5738 5737 5737 5737 5737 5737 5736 5735 5734 5732 5731 5730 5730 5730 5730 5729 5728 5727 5727 5726 5725 5724 5723 5722 5721 5720 5719 5718 5717 5715 5713 5711 5710 5708 5707 5705 5704 5703 5701 5700 5698 5697 5696
5739 5738 5737 5737 5737 5736 5735 5735 5733 5732 5730 5730 5729 5730 5729 5729 5728 5728 5727 5726 5725 5725 5724 5723 5721 5720 5720 5719 5717 5716 5714 5712 5710 5709 5707 5706 5704 5702 5701 5699 5698 5697 5695
5739 5738 5738 5737 5737 5736 5735 5734 5732 5732 5730 5730 5730 5729 5729 5729 5728 5728 5727 5727 5726 5725 5724 5723 5722 5721 5720 5719 5718 5717 5715 5713 5711 5709 5708 5706 5704 5702 5701 5699 5698 5696 5695
5739 5738 5738 5737 5737 5736 5735 5734 5732 5730 5729 5729 5726 5725 5727 5728 5729 5729 5728 5727 5727 5726 5725 5724 5723 5722 5721 5720 5719 5717 5716 5714 5712 5710 5708 5706 5704 5703 5701 5699 5698 5696 5695
5739 5738 5738 5737 5737 5735 5734 5733 5732 5730 5728 5728 5725 5721 5719 5722 5726 5729 5728 5728 5728 5727 5726 5725 5723 5722 5721 5720 5719 5718 5716 5714 5712 5711 5709 5707 5705 5703 5701 5699 5698 5696 5694
5740 5739 5738 5738 5737 5736 5735 5734 5733 5730 5727 5727 5727 5723 5717 5715 5719 5724 5726 5727 5727 5726 5726 5725 5724 5723 5721 5720 5719 5718 5716 5715 5712 5711 5709 5707 5705 5703 5701 5699 5697 5695 5693
5740 5740 5739 5738 5738 5737 5736 5735 5734 5733 5730 5726 5726 5726 5725 5723 5717 5716 5721 5724 5725 5724 5724 5724 5723 5722 5721 5719 5718 5717 5715 5714 5712 5710 5708 5706 5704 5702 5700 5698 5696 5694 5692
5741 5740 5739 5739 5738 5738 5737 5736 5735 5734 5732 5729 5727 5725 5723 5721 5721 5716 5714 5718 5721 5722 5722 5722 5721 5720 5719 5718 5717 5715 5714 5712 5711 5708 5706 5704 5702 5700 5698 5696 5694 5692 5689
5740 5740 5739 5739 5739 5738 5738 5737 5736 5735 5733 5731 5729 5727 5725 5721 5719 5717 5714 5714 5715 5718 5719 5719 5718 5717 5716 5715 5714 5713 5711 5710 5708 5705 5703 5701 5699 5697 5695 5693 5691 5688 5685
5739 5739 5739 5738 5738 5738 5738 5737 5736 5734 5733 5731 5729 5728 5726 5724 5723 5719 5716 5713 5712 5713 5714 5714 5713 5713 5712 5711 5710 5709 5707 5705 5703 5701 5698 5696 5694 5692 5690 5688 5685 5683 5680
5739 5739 5738 5738 5738 5737 5737 5736 5735 5734 5732 5730 5729 5727 5725 5724 5722 5720 5717 5712 5709 5708 5709 5709 5709 5708 5707 5706 5705 5703 5701 5700 5697 5695 5693 5691 5689 5686 5684 5682 5679 5676 5673
5739 5738 5737 5737 5736 5736 5735 5734 5733 5731 5730 5728 5727 5726 5724 5722 5721 5719 5717 5715 5709 5704 5704 5704 5703 5703 5702 5700 5699 5697 5695 5693 5691 5689 5687 5684 5682 5679 5677 5674 5672 5669 5666
5738 5737 5736 5735 5734 5733 5732 5732 5730 5728 5726 5725 5724 5722 5720 5719 5718 5717 5715 5713 5711 5707 5702 5701 5699 5697 5696 5694 5691 5689 5687 5685 5682 5680 5678 5676 5674 5671 5669 5666 5663 5660 5658
5736 5735 5733 5732 5731 5730 5729 5728 5726 5724 5722 5720 5719 5717 5716 5715 5714 5712 5711 5709 5707 5704 5699 5696 5694 5692 5689 5686 5683 5681 5678 5676 5672 5670 5668 5666 5664 5661 5658 5656 5653 5650 5648
5734 5733 5731 5729 5728 5727 5725 5724 5722 5720 5718 5716 5714 5713 5711 5710 5708 5707 5705 5704 5702 5699 5696 5691 5687 5684 5681 5678 5675 5672 5669 5666 5663 5660 5657 5655 5653 5651 5648 5645 5642 5639 5636
5731 5729 5728 5725 5724 5723 5721 5719 5718 5715 5713 5712 5710 5708 5706 5704 5703 5701 5700 5698 5696 5693 5690 5686 5681 5677 5673 5670 5666 5662 5659 5655 5653 5649 5647 5644 5641 5639 5636 5633 5630 5627 5625
5727 5725 5723 5722 5720 5719 5717 5715 5713 5710 5708 5706 5705 5703 5701 5699 5697 5695 5693 5691 5688 5685 5682 5678 5673 5669 5665 5661 5657 5653 5648 5645 5642 5639 5635 5632 5629 5627 5624 5621 5618 5615 5612
5723 5721 5719 5717 5716 5714 5712 5710 5708 5705 5702 5700 5698 5696 5695 5693 5691 5689 5686 5683 5680 5677 5673 5669 5664 5660 5656 5652 5648 5644 5639 5635 5631 5627 5624 5620 5618 5615 5612 5609 5606 5603 5600
5718 5716 5714 5712 5710 5709 5707 5705 5703 5700 5696 5693 5691 5688 5686 5684 5682 5681 5678 5676 5673 5669 5665 5661 5656 5652 5648 5644 5640 5635 5630 5627 5622 5616 5613 5609 5606 5603 5600 5597 5594 5591 5588
5712 5710 5708 5706 5704 5702 5701 5699 5697 5693 5689 5686 5683 5681 5679 5676 5673 5671 5668 5666 5663 5660 5657 5654 5649 5644 5640 5636 5632 5627 5622 5618 5613 5607 5603 5600 5595 5592 5589 5585 5582 5580 5577
5706 5704 5701 5699 5697 5696 5694 5692 5689 5686 5682 5678 5676 5673 5670 5667 5665 5662 5659 5656 5652 5649 5646 5644 5640 5637 5633 5629 5625 5620 5614 5607 5602 5597 5594 5590 5585 5582 5578 5575 5572 5569 5566
5701 5697 5694 5692 5691 5689 5687 5685 5682 5679 5675 5671 5668 5665 5663 5660 5657 5654 5651 5646 5642 5638 5636 5633 5630 5626 5623 5619 5614 5610 5604 5600 5595 5589 5583 5581 5576 5572 5568 5565 5562 5559 5555
5694 5691 5687 5685 5683 5682 5680 5678 5676 5672 5668 5663 5660 5656 5654 5651 5648 5645 5642 5638 5633 5629 5626 5623 5619 5615 5611 5607 5603 5600 5596 5591 5586 5580 5574 5571 5567 5563 5560 5556 5552 5549 5545